Погода в Пушкаре

Индия     26°29′28″N   74°33′26″E
темп.,
°C
ветер,
м/с
пор.,
м/с
влажн.,
%
обл.,
%
осадки,
мм/ч
давл.,
гПа
погр.,
м
23 апреля, пт
пт2323:30+28ююз12175 0.0 100811
02:30+27юз461870 0.0 1007102
05:30+24зюз33260 0.0 100827
08:30+29юз59310 0.0 1009523
11:30+36юз89120 0.0 10073854
14:30+38зюз791161 0.0 10054932
17:30+37з89115 0.0 10044587
20:30+31з4111986 0.0 1006187
24 апреля, сб
сб2423:30+28сз612315 0.1 1008332
02:30+25с5103827 0.1 1007306
05:30+22с35450 0.1 1008117
08:30+27с46340 0.0 1011473
11:30+34с5680 0.0 10101516
14:30+36ссз66783 0.0 10083237
17:30+35ссз7681 0.0 10072877
20:30+28ссв481768 0.0 1010123
25 апреля, вс
вс2523:30+26св481737 0.0 1011124
02:30+25ссв4819100 0.0 1010125
05:30+24ссв4621100 0.0 101075
08:30+30св35150 0.0 1012578
11:30+35ссз5590 0.0 10112149
14:30+37ссз5660 0.0 10082907
17:30+36ссз5570 0.0 10072945
20:30+29ссв45110 0.0 100945
26 апреля, пн
пн2623:30+27всв33110 0.0 101017
02:30+26св33120 0.0 100815
05:30+23ссв121419 0.0 100811
08:30+32с1399 0.0 1009322
11:30+37с4465 0.0 10092755
14:30+39ссв33465 0.0 10053930
17:30+38с3344 0.0 10044475
20:30+31ссв4491 0.0 100638
27 апреля, вт
вт2723:30+29в33110 0.0 100717
02:30+28всв33120 0.0 100614
05:30+25зюз12150 0.0 100711
08:30+33юз4594 0.0 1008293
11:30+39з5460 0.0 10083677
14:30+40зсз3252 0.0 10055117
17:30+39з33517 0.0 10044843
20:30+32з2384 0.0 100636